Погода в Нейпире

Новая Зеландия     39°30′32″S   176°52′47″E
темп.,
°C
ветер,
м/с
пор.,
м/с
влажн.,
%
обл.,
%
осадки,
мм/ч
давл.,
гПа
погр.,
м
2 декабря, чт
чт201:00+16ююз338551 0.6 1026365
04:00+15юз2283100 0.1 1025217
07:00+15ююв1281100 0.3 1026365
10:00+17в236993 0.2 1027640
13:00+17в547291 0.2 1026603
16:00+17в5572100 0.0 1025629
19:00+17всв4570100 0.0 1025653
22:00+17всв4577100 0.0 1026615
3 декабря, пт
пт301:00+17св568586 0.2 1026552
04:00+15ссз228799 0.1 1025175
07:00+14сз22855 0.1 1026163
10:00+15всв2382100 0.0 1026181
13:00+17в5684100 0.0 1024312
16:00+18всв91384100 0.0 1022329
19:00+18всв101581100 0.0 1021251
22:00+18ссв5783100 0.0 1023118
4 декабря, сб
сб401:00+17ссз1285100 0.0 102360
04:00+17ссз2279100 0.0 102299
07:00+17с2377100 0.0 1023151
10:00+17св4581100 0.0 1023171
13:00+19всв5784100 0.0 1021150
16:00+19св6983100 0.0 1020120
19:00+20с6970100 0.1 1020132
22:00+19с577979 0.1 102289
5 декабря, вс
вс501:00+18ссв578150 0.1 1022107
04:00+18ссв678248 0.0 1021163
07:00+18ссв568269 0.0 1021144
10:00+18св5679100 0.0 1022137
13:00+19св5777100 0.0 1019105
16:00+21ссв57698 0.0 1017131
19:00+22ссз566559 0.0 101894
22:00+21с5771100 0.0 101977
6 декабря, пн
пн601:00+20с687313 0.0 101897
04:00+19с577843 0.0 101886
07:00+19с568189 0.1 101974
10:00+19сз2384100 0.4 102132
13:00+15ююз81187100 6.3 1024825
16:00+14ююз6988100 5.7 1026782
19:00+14ю81082100 9.8 1028926
22:00+14ю6880100 1.5 1030837